TimeEDT,TemperatureF,Dew PointF,Humidity,Sea Level PressureIn,VisibilityMPH,Wind Direction,Wind SpeedMPH,Gust SpeedMPH,PrecipitationIn,Events,Conditions,WindDirDegrees,DateUTC
12:19 AM,38.7,34.0,83,30.63,10.0,Calm,Calm,-,N/A,,Clear,0,2013-04-22 04:19:00
12:39 AM,38.3,34.2,85,30.63,10.0,East,3.5,-,N/A,,Clear,90,2013-04-22 04:39:00
12:59 AM,38.1,34.2,86,30.62,10.0,East,3.5,-,N/A,,Clear,80,2013-04-22 04:59:00
1:19 AM,36.7,34.7,93,30.61,10.0,Calm,Calm,-,N/A,,Clear,0,2013-04-22 05:19:00
1:39 AM,36.5,34.3,92,30.60,10.0,Calm,Calm,-,N/A,,Clear,0,2013-04-22 05:39:00
1:59 AM,36.5,34.9,94,30.59,10.0,ENE,3.5,-,N/A,,Clear,70,2013-04-22 05:59:00
2:19 AM,35.1,34.0,96,30.59,10.0,Calm,Calm,-,N/A,,Clear,0,2013-04-22 06:19:00
2:39 AM,35.1,35.1,100,30.60,10.0,Calm,Calm,-,N/A,,Clear,0,2013-04-22 06:39:00
2:59 AM,34.7,34.7,100,30.60,10.0,Calm,Calm,-,N/A,,Clear,0,2013-04-22 06:59:00
3:19 AM,34.2,34.2,100,30.60,10.0,Calm,Calm,-,N/A,,Clear,0,2013-04-22 07:19:00
3:39 AM,34.0,34.0,100,30.59,10.0,Calm,Calm,-,N/A,,Clear,0,2013-04-22 07:39:00
3:59 AM,33.8,33.8,100,30.59,10.0,NE,3.5,-,N/A,,Clear,50,2013-04-22 07:59:00
4:20 AM,33.8,33.8,100,30.58,10.0,NNE,3.5,-,N/A,,Clear,30,2013-04-22 08:20:00
4:40 AM,34.7,34.7,100,30.58,10.0,NE,4.6,-,N/A,,Clear,40,2013-04-22 08:40:00
5:00 AM,34.3,34.3,100,30.57,10.0,NNE,5.8,-,N/A,,Clear,30,2013-04-22 09:00:00
5:20 AM,34.3,34.3,100,30.58,10.0,NE,4.6,-,N/A,,Clear,40,2013-04-22 09:20:00
5:40 AM,34.2,34.2,100,30.57,10.0,NNE,5.8,-,N/A,,Clear,30,2013-04-22 09:40:00
5:47 AM,33.8,33.8,100,30.57,10.0,NNE,4.6,-,N/A,,Clear,20,2013-04-22 09:47:00
6:00 AM,34.0,34.0,100,30.57,10.0,NNE,4.6,-,N/A,,Clear,30,2013-04-22 10:00:00
6:20 AM,34.0,34.0,100,30.57,10.0,NE,3.5,-,N/A,,Clear,40,2013-04-22 10:20:00
6:40 AM,34.9,34.9,100,30.57,10.0,NNE,4.6,-,N/A,,Clear,30,2013-04-22 10:40:00
6:51 AM,35.6,35.6,100,30.57,10.0,NNE,4.6,-,N/A,,Partly Cloudy,20,2013-04-22 10:51:00
7:00 AM,36.5,36.5,100,30.58,10.0,NNE,3.5,-,N/A,,Clear,30,2013-04-22 11:00:00
7:20 AM,38.5,36.5,93,30.59,10.0,NE,4.6,-,N/A,,Clear,40,2013-04-22 11:20:00
7:40 AM,40.5,37.9,91,30.59,10.0,NE,6.9,-,N/A,,Clear,50,2013-04-22 11:40:00
7:42 AM,40.6,37.9,90,30.59,10.0,NE,6.9,-,N/A,,Clear,50,2013-04-22 11:42:00
7:45 AM,41.0,37.4,87,30.59,10.0,NE,8.1,-,N/A,,Scattered Clouds,50,2013-04-22 11:45:00
8:45 AM,44.6,41.0,87,30.57,10.0,ENE,11.5,-,N/A,,Scattered Clouds,60,2013-04-22 12:45:00
10:50 AM,53.6,39.2,58,30.58,10.0,East,13.8,21.9,N/A,,Mostly Cloudy,90,2013-04-22 14:50:00
10:58 AM,50.0,39.2,66,30.57,10.0,ENE,9.2,18.4,N/A,,Mostly Cloudy,70,2013-04-22 14:58:00
11:50 AM,50.0,39.2,66,30.57,10.0,ENE,15.0,18.4,N/A,,Overcast,70,2013-04-22 15:50:00
12:51 PM,51.8,41.0,67,30.55,10.0,ENE,15.0,19.6,N/A,,Mostly Cloudy,60,2013-04-22 16:51:00
1:50 PM,53.6,41.0,62,30.53,10.0,East,16.1,-,N/A,,Scattered Clouds,80,2013-04-22 17:50:00
2:53 PM,53.6,41.0,62,30.50,10.0,East,11.5,18.4,N/A,,Mostly Cloudy,90,2013-04-22 18:53:00
3:50 PM,53.6,41.0,62,30.49,10.0,East,12.7,18.4,N/A,,Mostly Cloudy,90,2013-04-22 19:50:00
4:53 PM,53.6,39.2,58,30.47,10.0,East,10.4,19.6,N/A,,Mostly Cloudy,80,2013-04-22 20:53:00
5:50 PM,50.0,39.2,66,30.46,10.0,East,16.1,19.6,N/A,,Mostly Cloudy,80,2013-04-22 21:50:00
6:53 PM,50.0,39.2,66,30.46,10.0,East,10.4,16.1,N/A,,Overcast,80,2013-04-22 22:53:00
7:53 PM,48.2,41.0,76,30.46,10.0,East,11.5,18.4,N/A,,Overcast,80,2013-04-22 23:53:00
8:53 PM,48.2,41.0,76,30.46,10.0,ENE,11.5,-,N/A,,Overcast,70,2013-04-23 00:53:00
11:02 PM,46.8,41.9,83,30.45,10.0,ENE,8.1,-,N/A,,Scattered Clouds,60,2013-04-23 03:02:00
11:22 PM,46.6,41.9,84,30.45,10.0,ENE,8.1,-,N/A,,Scattered Clouds,70,2013-04-23 03:22:00
11:42 PM,46.6,41.9,84,30.44,10.0,ENE,6.9,-,N/A,,Mostly Cloudy,70,2013-04-23 03:42:00